Find MKA-N 2

NORAD ID: 42836 Int'l Des: NNA 2017-042 Owner: ROSK Country: RU operational
LEOCIRCULARRETROGRADESSO

Current View

Loading 3D Globe...

About MKA-N 2

Description loading...

Upcoming Passes

Passes for default location (London). Set your location on the main map for personalized predictions.

Altitude History

Loading altitude history...

Two-Line Element Set

1 42836U 17042M 26149.40945374 .00005674 00000-0 36514-3 0 9999
2 42836 97.4230 311.9990 0004854 147.1725 212.9806 15.08745919484182
Epoch: May 29, 2026 • Age: 18 hours

Current Status

Altitude 540.3 km
Velocity 7.60 km/s
Sub-Earth Point 28.52°N, 170.98°W
Launch Date Jul 14, 2017
Age 8.8 years
Type other

Technical Details

Classification Payload
Mass 10.00 kg
Dry Mass 10.00 kg
Total Mass 10.00 kg
Length 0.30 m
Diameter 0.20 m
Span 0.40 m
Shape Box+2 pan
Manufacturer DAUR
Bus Type Cubesat 6U
Phase Status In Orbit
Owner/State ROSK/RU

Most Searched